EHI
0 0 0 0 0 0 0 0 0 0 0 0 0 0 0 0 0 0 0 0 0 0 0 0 0 0 0 0 0 0 0 0 0 0 0 0 0 0 0 0 0 0 0 0
0 0 0 0 0 0 0 0 0 0 0 0 0 0 0 0 0 0 0 0 0 0 0 0 0 0 0 0 0 0 0 0 0 0 0 0 0 0 0 0 0 0 0 0
0 0 0 0 0 0 0 0 0 0 0 0 0 0 0 0 0 0 0 0 0 0 0 0 0 0 0 0 0 0 0 0 0 0 0 0 0 0 0 0 0 0 0 0
0 0 0 0 0 0 0 0 0 0 0 0 0 0 0 0 0 0 0 0 0 0 0 0 0 0 0 0 0 0 0 0 0 0 0 0 0 0 0 0 0 0 0 0
0 0 0 0 0 0 0 0 0 0 0 0 0 0 0 0 0 0 0 0 0 0 0 0 0 0 0 0 0 0 0 0 0 0 0 0 0 0 0 0 0 0 0 0
0 0 0 0 0 0 0 0 0 0 0 0 0 0 0 0 0 0 0 0 0 0 0 0 0 0 0 0 0 0 0 0 0 0 0 0 0 0 0 0 0 0 0 0
0 0 0 0 0 0 0 0 0 0 0 0 0 0 0 0 0 0 0 0 0 0 0 0 0 0 0 0 0 0 0 0 0 0 0 0 0 0 0 0 0 0 0 0
0 0 0 0 0 0 0 0 0 0 0 0 0 0 0 0 0 0 0 0 0 0 0 0 0 0 0 0 0 0 0 0 0 0 0 0 0 0 0 0 0 0 0 0
0 0 0 0 0 0 0 0 0 0 0 0 0 0 0 0 0 0 0 0 0 0 0 0 0 0 0 0 0 0 0 0 0 0 0 0 0 0 0 0 0 0 0 0
0 0 0 0 0 0 0 0 0 0 0 0 0 0 0 0 0 0 0 0 0 0 0 0 0 0 0 0 0 0 0 0 0 0 0 0 0 0 0 0 0 0 0 0
0 0 0 0 0 0 0 0 0 0 0 0 0 0 0 0 0 0 0 0 0 0 0 0 0 0 0 0 0 0 0 0 0 0 0 0 0 0 0 0 0 0 0 0
0 0 0 0 0 0 0 0 0 0 0 0 0 0 0 0 0 0 0 0 0 0 0 0 0 0 0 0 0 0 0 0 0 0 0 0 0 0 0 0 0 0 0 0
0 0 0 0 0 0 0 0 0 0 0 0 0 0 0 0 0 0 0 0 0 0 0 0 0 0 0 0 0 0 0 0 0 0 0 0 0 0 0 0 0 0 0 0
0 0 0 0 0 0 0 0 0 0 0 0 0 0 0 0 0 0 0 0 0 0 0 0 0 0 0 0 0 0 0 0 0 0 0 0 0 0 0 0 0 0 0 0
0 0 0 0 0 0 0 0 0 0 0 0 0 0 0 0 0 0 0 0 0 0 0 0 0 0 0 0 0 0 0 0 0 0 0 0 0 0 0 0 0 0 0 0
0 0 0 0 0 0 0 0 0 0 0 0 0 0 0 0 0 0 0 0 0 0 0 0 0 0 0 0 0 0 0 0 0 0 0 0 0 0 0 0 0 0 0 0
0 0 0 0 0 0 0 0 0 0 0 0 0 0 0 0 0 0 0 0 0 0 0 0 0 0 0 0 0 0 0 0 0 0 0 0 0 0 0 0 0 0 0 0
0 0 0 0 0 0 0 0 0 0 0 0 0 0 0 0 0 0 0 0 0 0 0 0 0 0 0 0 0 0 0 0 0 0 0 0 0 0 0 0 0 0 0 0
0 0 0 0 0 0 0 0 0 0 0 0 0 0 0 0 0 0 0 0 0 0 0 0 0 0 0 0 0 0 0 0 0 0 0 0 0 0 0 0 0 0 0 0
0 0 0 0 0 0 0 0 0 0 0 0 0 0 0 0 0 0 0 0 0 0 0 0 0 0 0 0 0 0 0 0 0 0 0 0 0 0 0 0 0 0 0 0
0 0 0 0 0 0 0 0 0 0 0 0 0 0 0 0 0 0 0 0 0 0 0 0 0 0 0 0 0 0 0 0 0 0 0 0 0 0 0 0 0 0 0 0
0 0 0 0 0 0 0 0 0 0 0 0 0 0 0 0 0 0 0 0 0 0 0 0 0 0 0 0 0 0 0 0 0 0 0 0 0 0 0 0 0 0 0 0
0 0 0 0 0 0 0 0 0 0 0 0 0 0 0 0 0 0 0 0 0 0 0 0 0 0 0 0 0 0 0 0 0 0 0 0 0 0 0 0 0 0 0 0
0 0 0 0 0 0 0 0 0 0 0 0 0 0 0 0 0 0 0 0 0 0 0 0 0 0 0 0 0 0 0 0 0 0 0 0 0 0 0 0 0 0 0 0
0 0 0 0 0 0 0 0 0 0 0 0 0 0 0 0 0 0 0 0 0 0 0 0 0 0 0 0 0 0 0 0 0 0 0 0 0 0 0 0 0 0 0 0
0 0 0 0 0 0 0 0 0 0 0 0 0 0 0 0 0 0 0 0 0 0 0 0 0 0 0 0 0 0 0 0 0 0 0 0 0 0 0 0 0 0 0 0
0 0 0 0 0 0 0 0 0 0 0 0 0 0 0 0 0 0 0 0 0 0 0 0 0 0 0 0 0 0 0 0 0 0 0 0 0 0 0 0 0 0 0 0
Wind_Speed
2 2 2 4 6 7 6 6 6 4 4 5 7 6 5 5 6 10 9 8 7 6 5 4 5 5 4 5 6 7 7 6 6 7 8 9 11 12 13 13 13 14 15 15
1 2 1 2 3 4 5 4 4 2 7 4 5 2 1 2 8 10 9 7 7 6 5 4 4 3 4 5 5 5 5 5 6 8 10 11 12 13 13 14 14 14 15 15
1 3 3 4 4 5 5 5 5 4 3 4 5 4 2 3 8 8 7 7 6 5 4 3 3 4 4 4 5 5 5 5 8 9 11 11 12 12 13 14 14 14 14 14
1 1 3 2 1 4 4 2 1 3 5 3 1 2 1 1 7 9 8 6 5 3 3 3 3 3 3 4 4 4 4 6 9 10 10 11 11 11 12 12 12 13 14 14
2 2 5 2 0 3 4 3 2 2 1 2 1 2 3 2 2 5 6 6 4 3 3 3 2 3 4 4 4 6 7 8 9 9 10 11 12 12 12 12 13 12 13 14
2 2 5 3 2 1 2 2 2 3 3 3 2 3 4 1 5 8 8 5 4 3 3 3 3 4 5 6 7 7 7 8 8 8 9 11 11 11 11 12 13 13 14 14
3 2 7 5 3 1 2 3 1 3 3 4 1 2 1 6 6 6 6 6 5 4 3 3 4 5 5 6 6 7 7 7 7 7 8 10 10 11 12 12 12 12 13 13
4 4 7 2 0 2 4 2 2 2 2 1 2 3 4 6 8 7 5 5 4 3 3 3 4 5 5 6 6 6 6 7 8 8 8 9 10 11 11 12 12 12 13 12
8 8 2 2 3 3 4 4 3 3 3 2 4 5 5 3 3 3 5 5 3 2 2 3 3 3 4 6 6 6 6 8 8 9 9 9 9 11 11 10 10 10 11 11
3 3 4 3 2 2 3 4 5 4 2 1 3 4 6 5 4 4 5 3 2 2 3 3 3 4 5 6 6 6 7 9 9 8 10 9 8 9 9 9 10 11 11 12
3 3 1 4 4 5 4 4 3 3 3 3 2 1 2 3 3 5 5 3 2 2 3 4 5 5 6 6 6 7 7 8 8 8 9 9 10 10 11 11 12 14 13 12
5 3 2 3 1 2 3 2 4 6 4 1 2 1 2 3 3 3 3 2 1 2 3 4 5 6 6 6 6 6 8 8 8 9 8 9 10 13 17 20 24 25 25 21
4 4 3 1 1 2 1 2 4 2 1 1 1 2 3 4 3 3 2 1 2 3 5 5 6 7 7 6 6 6 7 9 9 9 9 10 10 11 13 16 20 22 24 25
2 3 3 2 1 5 5 3 2 2 2 2 3 3 2 2 2 1 1 3 4 5 5 5 6 9 8 7 6 7 8 11 10 8 9 9 10 10 11 13 13 13 17 21
3 2 2 3 4 3 3 5 5 5 4 4 3 3 3 3 2 3 3 3 5 6 6 6 8 10 9 7 8 9 8 8 8 8 9 11 10 10 10 11 12 12 13 15
3 1 1 2 4 5 5 4 5 4 4 4 4 4 4 3 2 3 4 5 4 6 7 7 9 11 9 8 9 8 8 12 13 9 9 10 9 10 10 10 11 11 11 11
4 3 4 4 5 5 4 5 6 6 5 5 5 5 3 1 3 4 5 5 6 7 8 9 11 10 8 8 9 8 8 9 13 10 9 9 10 10 10 10 9 10 10 13
4 4 4 4 4 5 4 4 5 4 5 5 5 3 2 2 4 5 6 6 6 7 8 9 9 10 9 9 9 8 7 8 8 9 10 10 10 10 9 10 10 11 10 13
5 4 4 4 5 5 4 4 5 5 4 4 4 4 4 5 5 6 5 5 7 8 9 8 14 14 10 12 14 9 8 9 10 10 10 12 12 9 9 10 10 10 9 9
3 4 4 5 4 4 4 5 5 5 5 4 4 4 5 5 5 5 5 6 8 8 10 10 12 9 9 11 16 10 9 10 10 10 11 11 10 10 9 11 12 10 10 10
6 5 5 5 5 5 5 5 6 6 6 6 6 5 5 5 5 5 5 7 9 9 11 13 11 9 9 12 14 9 8 9 10 10 10 10 10 10 10 10 10 10 10 10
4 4 5 5 5 6 6 6 6 7 6 5 4 3 4 5 5 5 6 8 9 11 10 8 8 13 16 18 10 9 9 9 9 9 9 9 9 9 10 10 9 9 9 9
5 6 6 6 7 6 5 6 6 6 5 4 3 3 4 4 4 5 8 7 7 12 11 9 15 22 23 14 8 8 9 9 9 9 9 9 9 9 9 10 10 9 8 9
6 6 6 5 5 5 6 6 5 4 3 2 3 4 3 3 4 5 7 11 15 16 12 13 20 23 20 9 8 8 9 9 8 8 10 10 9 8 8 9 9 9 9 10
5 5 3 4 5 5 5 3 2 1 1 2 3 4 3 3 5 7 6 8 14 15 11 15 21 21 13 9 9 9 9 9 10 10 9 9 9 9 9 9 9 11 9 8
3 3 3 4 3 2 2 2 2 1 1 2 3 3 3 3 5 7 7 9 10 13 11 10 11 12 10 10 11 11 10 10 11 11 10 9 9 9 9 10 10 10 9 8
1 1 1 1 1 2 2 2 1 1 2 2 4 5 4 4 6 8 9 9 9 9 9 10 11 12 11 12 11 11 10 10 12 13 11 9 9 9 9 10 9 8 7 7
Wind_Direction
115 117 133 174 186 185 183 181 198 203 212 238 254 259 257 237 158 146 163 160 141 132 120 101 82 65 49 26 15 11 7 5 354 346 347 345 344 341 337 334 333 331 329 327
57 15 62 230 238 229 221 202 232 278 282 253 260 282 209 166 154 165 169 153 139 135 123 101 89 73 50 27 10 4 1 352 347 352 350 347 342 338 335 333 330 329 328 324
213 318 329 256 207 201 198 191 180 213 263 357 356 30 49 193 180 170 163 155 147 133 129 124 101 64 40 12 0 360 355 352 355 352 346 340 336 332 329 326 323 323 320 321
149 1 236 252 285 179 140 83 5 358 344 356 53 105 6 268 181 175 161 136 125 128 97 73 52 45 40 19 358 348 353 355 351 346 338 332 329 325 321 320 322 318 317 318
133 202 275 297 331 119 120 73 31 74 2 331 128 86 307 307 140 136 118 121 132 126 108 93 46 21 34 11 357 359 355 348 341 336 331 329 325 322 319 318 315 312 315 315
132 190 239 216 227 242 102 151 340 357 4 330 355 330 282 157 103 105 110 117 113 99 91 74 32 27 27 5 358 348 336 328 326 324 322 319 315 312 313 313 311 313 310 309
156 230 270 254 251 160 179 218 20 56 36 20 356 271 186 115 103 121 137 135 121 119 108 66 40 29 14 354 337 320 315 312 311 312 314 312 312 312 310 308 307 306 304 304
154 211 251 275 280 163 170 126 94 63 51 76 176 170 153 150 161 163 139 121 115 104 76 53 34 24 351 327 310 309 309 309 310 311 310 311 308 306 307 307 308 308 305 303
190 204 186 32 113 135 140 151 179 191 218 194 195 202 186 168 153 130 116 117 117 115 49 26 21 8 325 305 306 310 308 306 307 308 306 303 305 308 308 308 306 305 305 306
233 186 138 133 132 175 176 195 212 214 220 243 248 224 184 164 149 127 117 142 152 72 10 349 340 321 300 298 307 311 307 304 303 302 308 309 306 304 305 307 306 304 304 303
253 281 135 176 207 208 225 245 262 258 241 247 258 218 135 141 151 146 153 152 82 23 337 315 313 307 302 302 309 306 298 296 301 303 305 308 307 306 303 299 301 306 306 303
225 221 178 226 225 181 192 225 247 242 243 51 39 137 142 153 153 151 139 105 19 321 303 294 296 295 296 293 287 290 304 308 307 308 305 307 308 306 302 304 310 313 312 309
189 194 195 214 95 100 86 20 6 2 338 162 167 205 173 164 159 128 94 0 299 295 296 298 304 303 297 285 284 287 294 300 304 306 307 306 304 301 303 308 312 313 314 314
159 149 147 151 81 58 47 19 328 301 286 242 214 196 173 149 135 122 269 280 292 299 304 310 304 295 293 290 290 290 292 298 300 296 295 294 294 297 302 308 312 312 312 312
139 117 130 113 118 146 230 251 255 260 254 240 211 185 176 179 214 247 269 300 325 320 307 297 290 292 298 297 298 296 292 290 288 288 293 298 300 302 302 304 305 306 308 310
150 73 24 219 228 238 246 254 262 265 238 218 205 196 193 199 235 296 322 327 311 292 289 288 287 292 297 295 294 292 287 292 301 302 300 299 298 298 300 302 301 302 305 310
166 223 218 239 251 262 255 238 228 225 206 202 200 193 187 227 317 306 295 284 272 272 279 283 287 293 294 292 289 290 291 293 300 303 295 292 293 296 297 295 295 299 303 308
203 196 206 232 247 256 253 227 221 210 194 187 179 172 204 246 263 275 279 284 286 287 286 286 289 299 302 301 295 293 293 296 297 294 292 292 293 296 299 299 297 297 300 306
190 208 232 245 250 249 239 217 206 194 180 167 167 208 239 254 260 266 278 294 300 298 299 302 306 310 303 298 303 305 298 294 292 291 290 293 296 295 292 293 295 297 301 310
225 228 232 240 239 225 221 212 192 190 192 183 200 224 249 263 274 287 294 287 282 282 290 298 301 301 298 300 304 302 296 295 294 294 295 298 301 299 297 298 303 308 309 309
235 231 227 223 227 226 217 200 188 201 206 202 210 227 252 277 289 292 296 291 288 293 302 307 304 300 300 302 304 304 301 298 296 298 300 302 303 304 303 303 304 303 302 303
258 255 248 235 224 226 218 205 202 206 207 214 226 247 272 285 289 286 274 273 285 298 302 298 296 300 308 310 311 307 304 302 302 302 302 301 300 299 297 295 292 292 293 293
266 261 253 235 224 223 217 214 218 217 222 230 247 261 263 267 271 286 293 290 294 300 303 301 303 309 312 313 310 306 302 300 298 298 296 294 291 287 286 287 289 290 290 291
260 257 248 235 211 205 222 225 220 217 220 239 260 269 276 290 286 271 277 294 302 304 304 303 307 311 315 317 306 298 295 295 295 292 289 289 287 285 286 288 287 285 285 288
258 260 242 205 206 217 219 202 191 197 222 283 290 294 292 276 278 286 286 289 299 302 302 303 309 312 312 301 297 296 295 292 289 291 294 296 293 290 287 286 284 286 290 290
242 244 235 220 216 199 182 172 177 175 251 293 293 293 289 282 283 290 290 292 299 302 303 301 300 301 300 297 295 294 294 296 298 296 295 291 287 284 284 284 284 285 283 281
250 212 159 149 148 141 143 137 129 307 312 299 289 291 292 294 295 299 300 299 298 296 296 296 297 298 297 296 296 296 297 296 293 294 293 289 285 282 281 282 282 280 279 277